Year,Month,Day,Hour,Minute,Value (Times are PST for temperature in C)
2016,03,28,00,00,6.60
2016,03,28,00,01,6.60
2016,03,28,00,02,6.60
2016,03,28,00,03,6.60
2016,03,28,00,04,6.50
2016,03,28,00,05,6.50
2016,03,28,00,06,6.50
2016,03,28,00,07,6.50
2016,03,28,00,08,6.50
2016,03,28,00,09,6.50
2016,03,28,00,10,6.40
2016,03,28,00,11,6.40
2016,03,28,00,12,6.40
2016,03,28,00,13,6.40
2016,03,28,00,14,6.40
2016,03,28,00,15,6.40
2016,03,28,00,16,6.30
2016,03,28,00,17,6.30
2016,03,28,00,18,6.30
2016,03,28,00,19,6.30
2016,03,28,00,20,6.20
2016,03,28,00,21,6.20
2016,03,28,00,22,6.20
2016,03,28,00,23,6.20
2016,03,28,00,24,6.20
2016,03,28,00,25,6.10
2016,03,28,00,26,6.10
2016,03,28,00,27,6.00
2016,03,28,00,28,6.00
2016,03,28,00,29,6.00
2016,03,28,00,30,6.00
2016,03,28,00,31,5.90
2016,03,28,00,32,5.90
2016,03,28,00,33,5.90
2016,03,28,00,34,5.90
2016,03,28,00,35,5.90
2016,03,28,00,36,5.90
2016,03,28,00,37,5.80
2016,03,28,00,38,5.80
2016,03,28,00,39,5.80
2016,03,28,00,40,5.80
2016,03,28,00,41,5.80
2016,03,28,00,42,5.80
2016,03,28,00,43,5.70
2016,03,28,00,44,5.70
2016,03,28,00,45,5.70
2016,03,28,00,46,5.70
2016,03,28,00,47,5.70
2016,03,28,00,48,5.60
2016,03,28,00,49,5.60
2016,03,28,00,50,5.60
2016,03,28,00,51,5.60
2016,03,28,00,52,5.50
2016,03,28,00,53,5.50
2016,03,28,00,54,5.50
2016,03,28,00,55,5.40
2016,03,28,00,56,5.40
2016,03,28,00,57,5.40
2016,03,28,00,58,5.40
2016,03,28,00,59,5.40
2016,03,28,01,00,5.30
2016,03,28,01,01,5.30
2016,03,28,01,02,5.30
2016,03,28,01,03,5.30
2016,03,28,01,04,5.30
2016,03,28,01,05,5.30
2016,03,28,01,06,5.30
2016,03,28,01,07,5.30
2016,03,28,01,08,5.30
2016,03,28,01,09,5.30
2016,03,28,01,10,5.30
2016,03,28,01,11,5.30
2016,03,28,01,12,5.30
2016,03,28,01,13,5.30
2016,03,28,01,14,5.30
2016,03,28,01,15,5.30
2016,03,28,01,16,5.30
2016,03,28,01,17,5.30
2016,03,28,01,18,5.30
2016,03,28,01,19,5.30
2016,03,28,01,20,5.30
2016,03,28,01,21,5.20
2016,03,28,01,22,5.20
2016,03,28,01,23,5.20
2016,03,28,01,24,5.20
2016,03,28,01,25,5.20
2016,03,28,01,26,5.10
2016,03,28,01,27,5.10
2016,03,28,01,28,5.10
2016,03,28,01,29,5.10
2016,03,28,01,30,5.10
2016,03,28,01,31,5.00
2016,03,28,01,32,5.00
2016,03,28,01,33,4.90
2016,03,28,01,34,4.90
2016,03,28,01,35,4.80
2016,03,28,01,36,4.80
2016,03,28,01,37,4.80
2016,03,28,01,38,4.70
2016,03,28,01,39,4.70
2016,03,28,01,40,4.60
2016,03,28,01,41,4.60
2016,03,28,01,42,4.50
2016,03,28,01,43,4.50
2016,03,28,01,44,4.40
2016,03,28,01,45,4.40
2016,03,28,01,46,4.40
2016,03,28,01,47,4.40
2016,03,28,01,48,4.40
2016,03,28,01,49,4.30
2016,03,28,01,50,4.30
2016,03,28,01,51,4.30
2016,03,28,01,52,4.30
2016,03,28,01,53,4.30
2016,03,28,01,54,4.20
2016,03,28,01,55,4.20
2016,03,28,01,56,4.20
2016,03,28,01,57,4.20
2016,03,28,01,58,4.10
2016,03,28,01,59,4.10
2016,03,28,02,00,4.10
2016,03,28,02,01,4.10
2016,03,28,02,02,4.00
2016,03,28,02,03,4.00
2016,03,28,02,04,3.90
2016,03,28,02,05,3.90
2016,03,28,02,06,3.80
2016,03,28,02,07,3.80
2016,03,28,02,08,3.80
2016,03,28,02,09,3.70
2016,03,28,02,10,3.60
2016,03,28,02,11,3.60
2016,03,28,02,12,3.60
2016,03,28,02,13,3.50
2016,03,28,02,14,3.50
2016,03,28,02,15,3.40
2016,03,28,02,16,3.40
2016,03,28,02,17,3.40
2016,03,28,02,18,3.40
2016,03,28,02,19,3.40
2016,03,28,02,20,3.40
2016,03,28,02,21,3.40
2016,03,28,02,22,3.40
2016,03,28,02,23,3.30
2016,03,28,02,24,3.30
2016,03,28,02,25,3.30
2016,03,28,02,26,3.30
2016,03,28,02,27,3.30
2016,03,28,02,28,3.30
2016,03,28,02,29,3.30
2016,03,28,02,30,3.30
2016,03,28,02,31,3.30
2016,03,28,02,32,3.30
2016,03,28,02,33,3.30
2016,03,28,02,34,3.30
2016,03,28,02,35,3.30
2016,03,28,02,36,3.30
2016,03,28,02,37,3.30
2016,03,28,02,38,3.20
2016,03,28,02,39,3.20
2016,03,28,02,40,3.20
2016,03,28,02,41,3.20
2016,03,28,02,42,3.20
2016,03,28,02,43,3.20
2016,03,28,02,44,3.20
2016,03,28,02,45,3.20
2016,03,28,02,46,3.20
2016,03,28,02,47,3.20
2016,03,28,02,48,3.20
2016,03,28,02,49,3.20
2016,03,28,02,50,3.20
2016,03,28,02,51,3.20
2016,03,28,02,52,3.20
2016,03,28,02,53,3.20
2016,03,28,02,54,3.20
2016,03,28,02,55,3.20
2016,03,28,02,56,3.20
2016,03,28,02,57,3.20
2016,03,28,02,58,3.20
2016,03,28,02,59,3.20
2016,03,28,03,00,3.10
2016,03,28,03,01,3.10
2016,03,28,03,02,3.10
2016,03,28,03,03,3.00
2016,03,28,03,04,3.00
2016,03,28,03,05,3.00
2016,03,28,03,06,2.90
2016,03,28,03,07,2.90
2016,03,28,03,08,2.90
2016,03,28,03,09,2.90
2016,03,28,03,10,2.90
2016,03,28,03,11,2.90
2016,03,28,03,12,2.90
2016,03,28,03,13,2.90
2016,03,28,03,14,2.90
2016,03,28,03,15,2.90
2016,03,28,03,16,2.90
2016,03,28,03,17,2.90
2016,03,28,03,18,2.90
2016,03,28,03,19,2.90
2016,03,28,03,20,2.90
2016,03,28,03,21,2.90
2016,03,28,03,22,2.90
2016,03,28,03,23,2.90
2016,03,28,03,24,2.90
2016,03,28,03,25,2.90
2016,03,28,03,26,2.90
2016,03,28,03,27,2.90
2016,03,28,03,28,2.90
2016,03,28,03,29,2.90
2016,03,28,03,30,2.90
2016,03,28,03,31,2.90
2016,03,28,03,32,2.80
2016,03,28,03,33,2.80
2016,03,28,03,34,2.80
2016,03,28,03,35,2.80
2016,03,28,03,36,2.80
2016,03,28,03,37,2.80
2016,03,28,03,38,2.80
2016,03,28,03,39,2.80
2016,03,28,03,40,2.80
2016,03,28,03,41,2.80
2016,03,28,03,42,2.70
2016,03,28,03,43,2.70
2016,03,28,03,44,2.70
2016,03,28,03,45,2.70
2016,03,28,03,46,2.70
2016,03,28,03,47,2.70
2016,03,28,03,48,2.70
2016,03,28,03,49,2.70
2016,03,28,03,50,2.70
2016,03,28,03,51,2.70
2016,03,28,03,52,2.70
2016,03,28,03,53,2.70
2016,03,28,03,54,2.80
2016,03,28,03,55,2.80
2016,03,28,03,56,2.80
2016,03,28,03,57,2.80
2016,03,28,03,58,2.80
2016,03,28,03,59,2.80
2016,03,28,04,00,2.80
2016,03,28,04,01,2.80
2016,03,28,04,02,2.90
2016,03,28,04,03,2.90
2016,03,28,04,04,2.90
2016,03,28,04,05,2.90
2016,03,28,04,06,2.90
2016,03,28,04,07,2.90
2016,03,28,04,08,2.90
2016,03,28,04,09,2.90
2016,03,28,04,10,2.90
2016,03,28,04,11,2.90
2016,03,28,04,12,2.90
2016,03,28,04,13,2.90
2016,03,28,04,14,2.90
2016,03,28,04,15,2.90
2016,03,28,04,16,2.90
2016,03,28,04,17,2.90
2016,03,28,04,18,2.90
2016,03,28,04,19,2.90
2016,03,28,04,20,3.00
2016,03,28,04,21,3.00
2016,03,28,04,22,3.00
2016,03,28,04,23,3.00
2016,03,28,04,24,3.00
2016,03,28,04,25,3.10
2016,03,28,04,26,3.10
2016,03,28,04,27,3.10
2016,03,28,04,28,3.10
2016,03,28,04,29,3.10
2016,03,28,04,30,3.10
2016,03,28,04,31,3.20
2016,03,28,04,32,3.20
2016,03,28,04,33,3.20
2016,03,28,04,34,3.20
2016,03,28,04,35,3.20
2016,03,28,04,36,3.30
2016,03,28,04,37,3.30
2016,03,28,04,38,3.30
2016,03,28,04,39,3.30
2016,03,28,04,40,3.30
2016,03,28,04,41,3.30
2016,03,28,04,42,3.30
2016,03,28,04,43,3.30
2016,03,28,04,44,3.30
2016,03,28,04,45,3.30
2016,03,28,04,46,3.30
2016,03,28,04,47,3.30
2016,03,28,04,48,3.20
2016,03,28,04,49,3.20
2016,03,28,04,50,3.20
2016,03,28,04,51,3.20
2016,03,28,04,52,3.20
2016,03,28,04,53,3.20
2016,03,28,04,54,3.20
2016,03,28,04,55,3.20
2016,03,28,04,56,3.20
2016,03,28,04,57,3.10
2016,03,28,04,58,3.10
2016,03,28,04,59,3.10
2016,03,28,05,00,3.10
2016,03,28,05,01,3.10
2016,03,28,05,02,3.10
2016,03,28,05,03,3.10
2016,03,28,05,04,3.10
2016,03,28,05,05,3.10
2016,03,28,05,06,3.10
2016,03,28,05,07,3.10
2016,03,28,05,08,3.00
2016,03,28,05,09,3.00
2016,03,28,05,10,3.00
2016,03,28,05,11,3.00
2016,03,28,05,12,3.00
2016,03,28,05,13,3.10
2016,03,28,05,14,3.10
2016,03,28,05,15,3.10
2016,03,28,05,16,3.10
2016,03,28,05,17,3.10
2016,03,28,05,18,3.10
2016,03,28,05,19,3.10
2016,03,28,05,20,3.10
2016,03,28,05,21,3.10
2016,03,28,05,22,3.10
2016,03,28,05,23,3.10
2016,03,28,05,24,3.10
2016,03,28,05,25,3.10
2016,03,28,05,26,3.10
2016,03,28,05,27,3.10
2016,03,28,05,28,3.10
2016,03,28,05,29,3.10
2016,03,28,05,30,3.10
2016,03,28,05,31,3.10
2016,03,28,05,32,3.10
2016,03,28,05,33,3.10
2016,03,28,05,34,3.10
2016,03,28,05,35,3.10
2016,03,28,05,36,3.10
2016,03,28,05,37,3.10
2016,03,28,05,38,3.10
2016,03,28,05,39,3.10
2016,03,28,05,40,3.10
2016,03,28,05,41,3.10
2016,03,28,05,42,3.10
2016,03,28,05,43,3.10
2016,03,28,05,44,3.00
2016,03,28,05,45,3.00
2016,03,28,05,46,3.00
2016,03,28,05,47,3.00
2016,03,28,05,48,2.90
2016,03,28,05,49,2.90
2016,03,28,05,50,2.90
2016,03,28,05,51,2.90
2016,03,28,05,52,2.90
2016,03,28,05,53,2.80
2016,03,28,05,54,2.80
2016,03,28,05,55,2.80
2016,03,28,05,56,2.80
2016,03,28,05,57,2.80
2016,03,28,05,58,2.80
2016,03,28,05,59,2.80
2016,03,28,06,00,2.80
2016,03,28,06,01,2.80
2016,03,28,06,02,2.80
2016,03,28,06,03,2.80
2016,03,28,06,04,2.80
2016,03,28,06,05,2.90
2016,03,28,06,06,2.90
2016,03,28,06,07,2.90
2016,03,28,06,08,2.90
2016,03,28,06,09,2.90
2016,03,28,06,10,2.90
2016,03,28,06,11,2.90
2016,03,28,06,12,2.90
2016,03,28,06,13,2.80
2016,03,28,06,14,2.80
2016,03,28,06,15,2.80
2016,03,28,06,16,2.80
2016,03,28,06,17,2.80
2016,03,28,06,18,2.80
2016,03,28,06,19,2.80
2016,03,28,06,20,2.80
2016,03,28,06,21,2.80
2016,03,28,06,22,2.90
2016,03,28,06,23,2.90
2016,03,28,06,24,2.90
2016,03,28,06,25,2.90
2016,03,28,06,26,2.90
2016,03,28,06,27,2.90
2016,03,28,06,28,2.80
2016,03,28,06,29,2.80
2016,03,28,06,30,2.80
2016,03,28,06,31,2.80
2016,03,28,06,32,2.80
2016,03,28,06,33,2.80
2016,03,28,06,34,2.80
2016,03,28,06,35,2.70
2016,03,28,06,36,2.70
2016,03,28,06,37,2.70
2016,03,28,06,38,2.70
2016,03,28,06,39,2.70
2016,03,28,06,40,2.70
2016,03,28,06,41,2.70
2016,03,28,06,42,2.80
2016,03,28,06,43,2.80
2016,03,28,06,44,2.80
2016,03,28,06,45,2.80
2016,03,28,06,46,2.80
2016,03,28,06,47,2.80
2016,03,28,06,48,2.80
2016,03,28,06,49,2.90
2016,03,28,06,50,2.90
2016,03,28,06,51,3.00
2016,03,28,06,52,3.00
2016,03,28,06,53,3.10
2016,03,28,06,54,3.10
2016,03,28,06,55,3.10
2016,03,28,06,56,3.10
2016,03,28,06,57,3.10
2016,03,28,06,58,3.20
2016,03,28,06,59,3.20
2016,03,28,07,00,3.20
2016,03,28,07,01,3.20
2016,03,28,07,02,3.20
2016,03,28,07,03,3.20
2016,03,28,07,04,3.20
2016,03,28,07,05,3.20
2016,03,28,07,06,3.30
2016,03,28,07,07,3.30
2016,03,28,07,08,3.30
2016,03,28,07,09,3.30
2016,03,28,07,10,3.30
2016,03,28,07,11,3.40
2016,03,28,07,12,3.50
2016,03,28,07,13,3.50
2016,03,28,07,14,3.50
2016,03,28,07,15,3.50
2016,03,28,07,16,3.60
2016,03,28,07,17,3.60
2016,03,28,07,18,3.60
2016,03,28,07,19,3.70
2016,03,28,07,20,3.70
2016,03,28,07,21,3.70
2016,03,28,07,22,3.70
2016,03,28,07,23,3.70
2016,03,28,07,24,3.70
2016,03,28,07,25,3.70
2016,03,28,07,26,3.80
2016,03,28,07,27,3.80
2016,03,28,07,28,3.80
2016,03,28,07,29,3.80
2016,03,28,07,30,3.80
2016,03,28,07,31,3.80
2016,03,28,07,32,3.80
2016,03,28,07,33,3.70
2016,03,28,07,34,3.70
2016,03,28,07,35,3.70
2016,03,28,07,36,3.60
2016,03,28,07,37,3.60
2016,03,28,07,38,3.60
2016,03,28,07,39,3.60
2016,03,28,07,40,3.70
2016,03,28,07,41,3.70
2016,03,28,07,42,3.70
2016,03,28,07,43,3.70
2016,03,28,07,44,3.80
2016,03,28,07,45,3.80
2016,03,28,07,46,3.80
2016,03,28,07,47,3.80
2016,03,28,07,48,3.80
2016,03,28,07,49,3.90
2016,03,28,07,50,3.90
2016,03,28,07,51,3.90
2016,03,28,07,52,3.90
2016,03,28,07,53,4.00
2016,03,28,07,54,4.00
2016,03,28,07,55,4.00
2016,03,28,07,56,4.10
2016,03,28,07,57,4.10
2016,03,28,07,58,4.20
2016,03,28,07,59,4.20
2016,03,28,08,00,4.30
2016,03,28,08,01,4.40
2016,03,28,08,02,4.40
2016,03,28,08,03,4.50
2016,03,28,08,04,4.60
2016,03,28,08,05,4.70
2016,03,28,08,06,4.80
2016,03,28,08,07,4.90
2016,03,28,08,08,5.00
2016,03,28,08,09,5.00
2016,03,28,08,10,5.10
2016,03,28,08,11,5.20
2016,03,28,08,12,5.30
2016,03,28,08,13,5.30
2016,03,28,08,14,5.40
2016,03,28,08,15,5.50
2016,03,28,08,16,5.60
2016,03,28,08,17,5.60
2016,03,28,08,18,5.70
2016,03,28,08,19,5.80
2016,03,28,08,20,5.80
2016,03,28,08,21,5.90
2016,03,28,08,22,6.00
2016,03,28,08,23,6.00
2016,03,28,08,24,6.10
2016,03,28,08,25,6.20
2016,03,28,08,26,6.30
2016,03,28,08,27,6.30
2016,03,28,08,28,6.30
2016,03,28,08,29,6.40
2016,03,28,08,30,6.40
2016,03,28,08,31,6.50
2016,03,28,08,32,6.50
2016,03,28,08,33,6.60
2016,03,28,08,34,6.60
2016,03,28,08,35,6.60
2016,03,28,08,36,6.70
2016,03,28,08,37,6.70
2016,03,28,08,38,6.70
2016,03,28,08,39,6.80
2016,03,28,08,40,6.80
2016,03,28,08,41,6.80
2016,03,28,08,42,6.80
2016,03,28,08,43,6.80
2016,03,28,08,44,6.80
2016,03,28,08,45,6.80
2016,03,28,08,46,6.80
2016,03,28,08,47,6.80
2016,03,28,08,48,6.80
2016,03,28,08,49,6.80
2016,03,28,08,50,6.80
2016,03,28,08,51,6.80
2016,03,28,08,52,6.80
2016,03,28,08,53,6.80
2016,03,28,08,54,6.80
2016,03,28,08,55,6.70
2016,03,28,08,56,6.80
2016,03,28,08,57,6.80
2016,03,28,08,58,6.80
2016,03,28,08,59,6.80
2016,03,28,09,00,6.80
2016,03,28,09,01,6.90
2016,03,28,09,02,6.90
2016,03,28,09,03,6.90
2016,03,28,09,04,7.00
2016,03,28,09,05,7.10
2016,03,28,09,06,7.10
2016,03,28,09,07,7.10
2016,03,28,09,08,7.10
2016,03,28,09,09,7.20
2016,03,28,09,10,7.20
2016,03,28,09,11,7.30
2016,03,28,09,12,7.30
2016,03,28,09,13,7.30
2016,03,28,09,14,7.30
2016,03,28,09,15,7.30
2016,03,28,09,16,7.40
2016,03,28,09,17,7.40
2016,03,28,09,18,7.40
2016,03,28,09,19,7.40
2016,03,28,09,20,7.50
2016,03,28,09,21,7.50
2016,03,28,09,22,7.60
2016,03,28,09,23,7.60
2016,03,28,09,24,7.60
2016,03,28,09,25,7.70
2016,03,28,09,26,7.70
2016,03,28,09,27,7.80
2016,03,28,09,28,7.80
2016,03,28,09,29,7.80
2016,03,28,09,30,7.80
2016,03,28,09,31,7.90
2016,03,28,09,32,7.90
2016,03,28,09,33,7.90
2016,03,28,09,34,7.90
2016,03,28,09,35,7.90
2016,03,28,09,36,7.90
2016,03,28,09,37,7.90
2016,03,28,09,38,8.00
2016,03,28,09,39,8.00
2016,03,28,09,40,8.00
2016,03,28,09,41,8.10
2016,03,28,09,42,8.10
2016,03,28,09,43,8.10
2016,03,28,09,44,8.10
2016,03,28,09,45,8.10
2016,03,28,09,46,8.10
2016,03,28,09,47,8.20
2016,03,28,09,48,8.20
2016,03,28,09,49,8.30
2016,03,28,09,50,8.30
2016,03,28,09,51,8.40
2016,03,28,09,52,8.40
2016,03,28,09,53,8.40
2016,03,28,09,54,8.50
2016,03,28,09,55,8.60
2016,03,28,09,56,8.60
2016,03,28,09,57,8.60
2016,03,28,09,58,8.70
2016,03,28,09,59,8.70
2016,03,28,10,00,8.70
2016,03,28,10,01,8.80
2016,03,28,10,02,8.80
2016,03,28,10,03,8.80
2016,03,28,10,04,8.80
2016,03,28,10,05,8.70
2016,03,28,10,06,8.70
2016,03,28,10,07,8.70
2016,03,28,10,08,8.80
2016,03,28,10,09,8.80
2016,03,28,10,10,8.80
2016,03,28,10,11,8.80
2016,03,28,10,12,8.80
2016,03,28,10,13,8.80
2016,03,28,10,14,8.80
2016,03,28,10,15,8.90
2016,03,28,10,16,8.90
2016,03,28,10,17,9.00
2016,03,28,10,18,9.00
2016,03,28,10,19,9.10
2016,03,28,10,20,9.10
2016,03,28,10,21,9.10
2016,03,28,10,22,9.10
2016,03,28,10,23,9.20
2016,03,28,10,24,9.20
2016,03,28,10,25,9.20
2016,03,28,10,26,9.20
2016,03,28,10,27,9.20
2016,03,28,10,28,9.30
2016,03,28,10,29,9.30
2016,03,28,10,30,9.30
2016,03,28,10,31,9.20
2016,03,28,10,32,9.20
2016,03,28,10,33,9.20
2016,03,28,10,34,9.20
2016,03,28,10,35,9.20
2016,03,28,10,36,9.20
2016,03,28,10,37,9.30
2016,03,28,10,38,9.30
2016,03,28,10,39,9.40
2016,03,28,10,40,9.40
2016,03,28,10,41,9.40
2016,03,28,10,42,9.40
2016,03,28,10,43,9.40
2016,03,28,10,44,9.40
2016,03,28,10,45,9.40
2016,03,28,10,46,9.30
2016,03,28,10,47,9.30
2016,03,28,10,48,9.30
2016,03,28,10,49,9.30
2016,03,28,10,50,9.20
2016,03,28,10,51,9.20
2016,03,28,10,52,9.20
2016,03,28,10,53,9.20
2016,03,28,10,54,9.20
2016,03,28,10,55,9.20
2016,03,28,10,56,9.20
2016,03,28,10,57,9.20
2016,03,28,10,58,9.30
2016,03,28,10,59,9.30
2016,03,28,11,00,9.30
2016,03,28,11,01,9.40
2016,03,28,11,02,9.40
2016,03,28,11,03,9.50
2016,03,28,11,04,9.50
2016,03,28,11,05,9.60
2016,03,28,11,06,9.60
2016,03,28,11,07,9.60
2016,03,28,11,08,9.70
2016,03,28,11,09,9.70
2016,03,28,11,10,9.80
2016,03,28,11,11,9.80
2016,03,28,11,12,9.80
2016,03,28,11,13,9.80
2016,03,28,11,14,9.90
2016,03,28,11,15,9.80
2016,03,28,11,16,9.80
2016,03,28,11,17,9.90
2016,03,28,11,18,9.90
2016,03,28,11,19,9.90
2016,03,28,11,20,9.90
2016,03,28,11,21,9.90
2016,03,28,11,22,9.90
2016,03,28,11,23,10.00
2016,03,28,11,24,10.10
2016,03,28,11,25,10.10
2016,03,28,11,26,10.30
2016,03,28,11,27,10.40
2016,03,28,11,28,10.40
2016,03,28,11,29,10.50
2016,03,28,11,30,10.50
2016,03,28,11,31,10.60
2016,03,28,11,32,10.50
2016,03,28,11,33,10.50
2016,03,28,11,34,10.60
2016,03,28,11,35,10.60
2016,03,28,11,36,10.50
2016,03,28,11,37,10.50
2016,03,28,11,38,10.40
2016,03,28,11,39,10.40
2016,03,28,11,40,10.40
2016,03,28,11,41,10.40
2016,03,28,11,42,10.40
2016,03,28,11,43,10.40
2016,03,28,11,44,10.50
2016,03,28,11,45,10.60
2016,03,28,11,46,10.60
2016,03,28,11,47,10.60
2016,03,28,11,48,10.50
2016,03,28,11,49,10.40
2016,03,28,11,50,10.40
2016,03,28,11,51,10.30
2016,03,28,11,52,10.30
2016,03,28,11,53,10.30
2016,03,28,11,54,10.40
2016,03,28,11,55,10.40
2016,03,28,11,56,10.40
2016,03,28,11,57,10.30
2016,03,28,11,58,10.20
2016,03,28,11,59,10.10
2016,03,28,12,00,10.10
2016,03,28,12,01,10.10
2016,03,28,12,02,10.00
2016,03,28,12,03,9.90
2016,03,28,12,04,9.90
2016,03,28,12,05,9.90
2016,03,28,12,06,10.10
2016,03,28,12,07,10.20
2016,03,28,12,08,10.30
2016,03,28,12,09,10.30
2016,03,28,12,10,10.40
2016,03,28,12,11,10.40
2016,03,28,12,12,10.50
2016,03,28,12,13,10.50
2016,03,28,12,14,10.50
2016,03,28,12,15,10.40
2016,03,28,12,16,10.40
2016,03,28,12,17,10.40
2016,03,28,12,18,10.40
2016,03,28,12,19,10.40
2016,03,28,12,20,10.50
2016,03,28,12,21,10.60
2016,03,28,12,22,10.60
2016,03,28,12,23,10.70
2016,03,28,12,24,10.80
2016,03,28,12,25,10.90
2016,03,28,12,26,11.00
2016,03,28,12,27,11.10
2016,03,28,12,28,11.10
2016,03,28,12,29,11.10
2016,03,28,12,30,11.10
2016,03,28,12,31,11.20
2016,03,28,12,32,11.20
2016,03,28,12,33,11.30
2016,03,28,12,34,11.30
2016,03,28,12,35,11.30
2016,03,28,12,36,11.20
2016,03,28,12,37,11.10
2016,03,28,12,38,11.00
2016,03,28,12,39,11.00
2016,03,28,12,40,11.00
2016,03,28,12,41,11.00
2016,03,28,12,42,10.90
2016,03,28,12,43,10.90
2016,03,28,12,44,10.80
2016,03,28,12,45,10.80
2016,03,28,12,46,10.80
2016,03,28,12,47,10.80
2016,03,28,12,48,10.90
2016,03,28,12,49,10.90
2016,03,28,12,50,11.00
2016,03,28,12,51,11.00
2016,03,28,12,52,11.00
2016,03,28,12,53,11.00
2016,03,28,12,54,11.10
2016,03,28,12,55,11.10
2016,03,28,12,56,11.10
2016,03,28,12,57,11.10
2016,03,28,12,58,11.10
2016,03,28,12,59,11.00
2016,03,28,13,00,11.00
2016,03,28,13,01,11.00
2016,03,28,13,02,11.00
2016,03,28,13,03,10.90
2016,03,28,13,04,10.90
2016,03,28,13,05,11.00
2016,03,28,13,06,11.00
2016,03,28,13,07,11.10
2016,03,28,13,08,11.10
2016,03,28,13,09,11.10
2016,03,28,13,10,11.10
2016,03,28,13,11,11.20
2016,03,28,13,12,11.30
2016,03,28,13,13,11.30
2016,03,28,13,14,11.30
2016,03,28,13,15,11.40
2016,03,28,13,16,11.60
2016,03,28,13,17,11.60
2016,03,28,13,18,11.60
2016,03,28,13,19,11.50
2016,03,28,13,20,11.50
2016,03,28,13,21,11.30
2016,03,28,13,22,11.30
2016,03,28,13,23,11.40
2016,03,28,13,24,11.30
2016,03,28,13,25,11.30
2016,03,28,13,26,11.30
2016,03,28,13,27,11.30
2016,03,28,13,28,11.40
2016,03,28,13,29,11.40
2016,03,28,13,30,11.40
2016,03,28,13,31,11.40
2016,03,28,13,32,11.40
2016,03,28,13,33,11.30
2016,03,28,13,34,11.30
2016,03,28,13,35,11.30
2016,03,28,13,36,11.30
2016,03,28,13,37,11.30
2016,03,28,13,38,11.30
2016,03,28,13,39,11.20
2016,03,28,13,40,11.20
2016,03,28,13,41,11.20
2016,03,28,13,42,11.20
2016,03,28,13,43,11.20
2016,03,28,13,44,11.30
2016,03,28,13,45,11.30
2016,03,28,13,46,11.40
2016,03,28,13,47,11.40
2016,03,28,13,48,11.40
2016,03,28,13,49,11.40
2016,03,28,13,50,11.40
2016,03,28,13,51,11.30
2016,03,28,13,52,11.30
2016,03,28,13,53,11.40
2016,03,28,13,54,11.40
2016,03,28,13,55,11.30
2016,03,28,13,56,11.30
2016,03,28,13,57,11.40
2016,03,28,13,58,11.50
2016,03,28,13,59,11.50
2016,03,28,14,00,11.60
2016,03,28,14,01,11.60
2016,03,28,14,02,11.60
2016,03,28,14,03,11.80
2016,03,28,14,04,11.90
2016,03,28,14,05,11.90
2016,03,28,14,06,12.00
2016,03,28,14,07,12.00
2016,03,28,14,08,11.90
2016,03,28,14,09,11.90
2016,03,28,14,10,11.90
2016,03,28,14,11,11.90
2016,03,28,14,12,11.80
2016,03,28,14,13,11.80
2016,03,28,14,14,11.70
2016,03,28,14,15,11.70
2016,03,28,14,16,11.70
2016,03,28,14,17,11.80
2016,03,28,14,18,11.90
2016,03,28,14,19,11.90
2016,03,28,14,20,12.00
2016,03,28,14,21,11.90
2016,03,28,14,22,11.90
2016,03,28,14,23,11.90
2016,03,28,14,24,11.80
2016,03,28,14,25,11.90
2016,03,28,14,26,11.90
2016,03,28,14,27,11.90
2016,03,28,14,28,11.90
2016,03,28,14,29,11.90
2016,03,28,14,30,12.00
2016,03,28,14,31,12.10
2016,03,28,14,32,12.10
2016,03,28,14,33,12.20
2016,03,28,14,34,12.10
2016,03,28,14,35,12.10
2016,03,28,14,36,12.10
2016,03,28,14,37,12.10
2016,03,28,14,38,12.00
2016,03,28,14,39,12.00
2016,03,28,14,40,11.90
2016,03,28,14,41,11.80
2016,03,28,14,42,11.80
2016,03,28,14,43,11.80
2016,03,28,14,44,11.80
2016,03,28,14,45,11.80
2016,03,28,14,46,11.80
2016,03,28,14,47,11.80
2016,03,28,14,48,11.80
2016,03,28,14,49,11.80
2016,03,28,14,50,11.90
2016,03,28,14,51,11.90
2016,03,28,14,52,12.00
2016,03,28,14,53,12.10
2016,03,28,14,54,12.10
2016,03,28,14,55,12.20
2016,03,28,14,56,12.40
2016,03,28,14,57,12.40
2016,03,28,14,58,12.40
2016,03,28,14,59,12.40
2016,03,28,15,00,12.30
2016,03,28,15,01,12.20
2016,03,28,15,02,12.20
2016,03,28,15,03,12.20
2016,03,28,15,04,12.30
2016,03,28,15,05,12.30
2016,03,28,15,06,12.40
2016,03,28,15,07,12.40
2016,03,28,15,08,12.40
2016,03,28,15,09,12.40
2016,03,28,15,10,12.30
2016,03,28,15,11,12.30
2016,03,28,15,12,12.30
2016,03,28,15,13,12.20
2016,03,28,15,14,12.20
2016,03,28,15,15,12.20
2016,03,28,15,16,12.20
2016,03,28,15,17,12.20
2016,03,28,15,18,12.30
2016,03,28,15,19,12.40
2016,03,28,15,20,12.40
2016,03,28,15,21,12.50
2016,03,28,15,22,12.50
2016,03,28,15,23,12.50
2016,03,28,15,24,12.50
2016,03,28,15,25,12.50
2016,03,28,15,26,12.40
2016,03,28,15,27,12.40
2016,03,28,15,28,12.40
2016,03,28,15,29,12.50
2016,03,28,15,30,12.60
2016,03,28,15,31,12.70
2016,03,28,15,32,12.80
2016,03,28,15,33,12.90
2016,03,28,15,34,13.00
2016,03,28,15,35,13.00
2016,03,28,15,36,13.00
2016,03,28,15,37,13.00
2016,03,28,15,38,13.10
2016,03,28,15,39,13.10
2016,03,28,15,40,13.10
2016,03,28,15,41,13.00
2016,03,28,15,42,13.00
2016,03,28,15,43,12.90
2016,03,28,15,44,12.90
2016,03,28,15,45,12.90
2016,03,28,15,46,12.90
2016,03,28,15,47,12.80
2016,03,28,15,48,12.80
2016,03,28,15,49,12.80
2016,03,28,15,50,12.70
2016,03,28,15,51,12.60
2016,03,28,15,52,12.60
2016,03,28,15,53,12.50
2016,03,28,15,54,12.40
2016,03,28,15,55,12.30
2016,03,28,15,56,12.30
2016,03,28,15,57,12.30
2016,03,28,15,58,12.30
2016,03,28,15,59,12.40
2016,03,28,16,00,12.40
2016,03,28,16,01,12.50
2016,03,28,16,02,12.50
2016,03,28,16,03,12.50
2016,03,28,16,04,12.40
2016,03,28,16,05,12.40
2016,03,28,16,06,12.40
2016,03,28,16,07,12.30
2016,03,28,16,08,12.30
2016,03,28,16,09,12.40
2016,03,28,16,10,12.40
2016,03,28,16,11,12.50
2016,03,28,16,12,12.60
2016,03,28,16,13,12.60
2016,03,28,16,14,12.60
2016,03,28,16,15,12.50
2016,03,28,16,16,12.30
2016,03,28,16,17,12.30
2016,03,28,16,18,12.30
2016,03,28,16,19,12.30
2016,03,28,16,20,12.30
2016,03,28,16,21,12.30
2016,03,28,16,22,12.30
2016,03,28,16,23,12.40
2016,03,28,16,24,12.50
2016,03,28,16,25,12.70
2016,03,28,16,26,12.80
2016,03,28,16,27,12.90
2016,03,28,16,28,12.90
2016,03,28,16,29,12.90
2016,03,28,16,30,13.00
2016,03,28,16,31,13.00
2016,03,28,16,32,13.00
2016,03,28,16,33,13.10
2016,03,28,16,34,13.10
2016,03,28,16,35,13.10
2016,03,28,16,36,13.10
2016,03,28,16,37,13.10
2016,03,28,16,38,13.10
2016,03,28,16,39,13.10
2016,03,28,16,40,13.20
2016,03,28,16,41,13.20
2016,03,28,16,42,13.10
2016,03,28,16,43,13.10
2016,03,28,16,44,13.10
2016,03,28,16,45,13.10
2016,03,28,16,46,13.10
2016,03,28,16,47,13.00
2016,03,28,16,48,12.80
2016,03,28,16,49,12.80
2016,03,28,16,50,12.80
2016,03,28,16,51,12.80
2016,03,28,16,52,12.70
2016,03,28,16,53,12.70
2016,03,28,16,54,12.70
2016,03,28,16,55,12.70
2016,03,28,16,56,12.70
2016,03,28,16,57,12.70
2016,03,28,16,58,12.70
2016,03,28,16,59,12.70
2016,03,28,17,00,12.80
2016,03,28,17,01,12.80
2016,03,28,17,02,12.80
2016,03,28,17,03,12.70
2016,03,28,17,04,12.70
2016,03,28,17,05,12.70
2016,03,28,17,06,12.80
2016,03,28,17,07,12.80
2016,03,28,17,08,12.80
2016,03,28,17,09,12.90
2016,03,28,17,10,13.00
2016,03,28,17,11,13.10
2016,03,28,17,12,13.10
2016,03,28,17,13,13.00
2016,03,28,17,14,13.00
2016,03,28,17,15,13.00
2016,03,28,17,16,13.00
2016,03,28,17,17,13.00
2016,03,28,17,18,12.80
2016,03,28,17,19,12.80
2016,03,28,17,20,12.80
2016,03,28,17,21,12.80
2016,03,28,17,22,12.80
2016,03,28,17,23,12.80
2016,03,28,17,24,12.70
2016,03,28,17,25,12.60
2016,03,28,17,26,12.60
2016,03,28,17,27,12.60
2016,03,28,17,28,12.60
2016,03,28,17,29,12.60
2016,03,28,17,30,12.70
2016,03,28,17,31,12.70
2016,03,28,17,32,12.70
2016,03,28,17,33,12.70
2016,03,28,17,34,12.70
2016,03,28,17,35,12.70
2016,03,28,17,36,12.60
2016,03,28,17,37,12.50
2016,03,28,17,38,12.40
2016,03,28,17,39,12.30
2016,03,28,17,40,12.30
2016,03,28,17,41,12.30
2016,03,28,17,42,12.30
2016,03,28,17,43,12.20
2016,03,28,17,44,12.20
2016,03,28,17,45,12.20
2016,03,28,17,46,12.10
2016,03,28,17,47,12.10
2016,03,28,17,48,12.20
2016,03,28,17,49,12.20